• In Russia
  • List of Countries
  • For 7 days
  • Water Temperature
  • Satellite Maps
  • Weather Map
  • Weather Widgets
  • user-avatar
    Login

    Hourly Weather Krasnye Ozerki

    Today, 16 July, Monday

    Time Temperature Precipitation Wind Pressure Humidity
    00:00 +21°C° 0.5 mm 2 mps 741 mmHg 83%
    01:00 +21°C° 0 mm 2 mps 741 mmHg 84%
    02:00 +20°C° 0 mm 2 mps 741 mmHg 85%
    03:00 +20°C° 0 mm 2 mps 741 mmHg 88%
    04:00 +21°C° 0.1 mm 3 mps 741 mmHg 88%
    05:00 +21°C° 0.1 mm 3 mps 741 mmHg 87%
    06:00 +21°C° 0.1 mm 3 mps 741 mmHg 87%
    07:00 +23°C° 0.7 mm 4 mps 741 mmHg 83%
    08:00 +26°C° 0.7 mm 4 mps 741 mmHg 78%
    09:00 +27°C° 0.7 mm 5 mps 741 mmHg 74%
    10:00 +28°C° 1.3 mm 5 mps 741 mmHg 69%
    11:00 +29°C° 1.3 mm 5 mps 740 mmHg 65%
    12:00 +30°C° 1.3 mm 5 mps 740 mmHg 60%
    13:00 +30°C° 0.9 mm 5 mps 740 mmHg 60%
    14:00 +30°C° 0.9 mm 5 mps 740 mmHg 61%
    15:00 +32°C° 0.9 mm 4 mps 740 mmHg 61%
    16:00 +30°C° 1 mm 4 mps 740 mmHg 65%
    17:00 +29°C° 1 mm 4 mps 740 mmHg 69%
    18:00 +28°C° 1 mm 3 mps 739 mmHg 73%
    19:00 +27°C° 0.3 mm 3 mps 739 mmHg 77%
    20:00 +26°C° 0.3 mm 4 mps 739 mmHg 81%
    21:00 +23°C° 0.3 mm 4 mps 739 mmHg 84%
    22:00 +23°C° 0.4 mm 4 mps 739 mmHg 86%
    23:00 +22°C° 0.4 mm 4 mps 739 mmHg 88%

    Tomorrow, 17 July, Tuesday

    Time Temperature Precipitation Wind Pressure Humidity
    00:00 +21°C° 0.4 mm 4 mps 739 mmHg 90%
    01:00 +21°C° 0.2 mm 3 mps 739 mmHg 91%
    02:00 +20°C° 0.2 mm 3 mps 739 mmHg 92%
    03:00 +20°C° 0.2 mm 3 mps 738 mmHg 93%
    04:00 +20°C° 0.3 mm 4 mps 738 mmHg 93%
    05:00 +20°C° 0.3 mm 4 mps 738 mmHg 93%
    06:00 +21°C° 0.3 mm 4 mps 738 mmHg 93%
    07:00 +21°C° 0.5 mm 5 mps 738 mmHg 92%
    08:00 +21°C° 0.5 mm 5 mps 737 mmHg 92%
    09:00 +21°C° 0.5 mm 5 mps 737 mmHg 91%
    10:00 +22°C° 0.2 mm 6 mps 737 mmHg 86%
    11:00 +23°C° 0.2 mm 7 mps 737 mmHg 82%
    12:00 +24°C° 0.2 mm 7 mps 737 mmHg 78%
    13:00 +23°C° 0.6 mm 7 mps 736 mmHg 81%
    14:00 +23°C° 0.6 mm 6 mps 736 mmHg 85%
    15:00 +22°C° 0.6 mm 6 mps 736 mmHg 88%
    16:00 +22°C° 0.7 mm 6 mps 735 mmHg 88%
    17:00 +22°C° 0.7 mm 6 mps 735 mmHg 89%
    18:00 +22°C° 0.7 mm 6 mps 735 mmHg 90%
    19:00 +21°C° 0.7 mm 5 mps 735 mmHg 91%
    20:00 +21°C° 0.7 mm 5 mps 735 mmHg 93%
    21:00 +20°C° 0.7 mm 4 mps 735 mmHg 95%
    22:00 +20°C° 0.2 mm 4 mps 734 mmHg 95%
    23:00 +19°C° 0.2 mm 4 mps 734 mmHg 96%

    Day after tomorrow, 18 July, Wednesday

    Time Temperature Precipitation Wind Pressure Humidity
    00:00 +19°C° 0.2 mm 3 mps 734 mmHg 96%
    01:00 +18°C° 0 mm 3 mps 734 mmHg 96%
    02:00 +18°C° 0 mm 3 mps 734 mmHg 96%
    03:00 +18°C° 0 mm 3 mps 733 mmHg 97%
    04:00 +18°C° 0.2 mm 3 mps 734 mmHg 96%
    05:00 +18°C° 0.2 mm 3 mps 734 mmHg 96%
    06:00 +18°C° 0.2 mm 3 mps 734 mmHg 96%
    07:00 +19°C° 0.4 mm 4 mps 734 mmHg 95%
    08:00 +19°C° 0.4 mm 4 mps 734 mmHg 95%
    09:00 +19°C° 0.4 mm 4 mps 734 mmHg 94%
    10:00 +20°C° 0.7 mm 5 mps 734 mmHg 92%
    11:00 +20°C° 0.7 mm 6 mps 735 mmHg 90%
    12:00 +21°C° 0.7 mm 6 mps 735 mmHg 88%
    13:00 +21°C° 1.2 mm 7 mps 735 mmHg 88%
    14:00 +21°C° 1.2 mm 7 mps 736 mmHg 88%
    15:00 +21°C° 1.2 mm 7 mps 736 mmHg 88%
    16:00 +21°C° 0.4 mm 7 mps 736 mmHg 88%
    17:00 +21°C° 0.4 mm 6 mps 736 mmHg 88%
    18:00 +20°C° 0.4 mm 6 mps 736 mmHg 87%
    19:00 +20°C° 0.3 mm 6 mps 737 mmHg 88%
    20:00 +20°C° 0.3 mm 5 mps 737 mmHg 89%
    21:00 +19°C° 0.3 mm 5 mps 737 mmHg 89%
    22:00 +19°C° 0.5 mm 5 mps 737 mmHg 90%
    23:00 +19°C° 0.5 mm 5 mps 737 mmHg 90%

    19 July, Thursday

    Time Temperature Precipitation Wind Pressure Humidity
    00:00 +19°C° 0.5 mm 5 mps 737 mmHg 90%
    01:00 +19°C° 0.2 mm 5 mps 737 mmHg 92%
    02:00 +19°C° 0.2 mm 5 mps 737 mmHg 93%
    03:00 +19°C° 0.2 mm 5 mps 737 mmHg 94%
    04:00 +19°C° 0.5 mm 5 mps 737 mmHg 94%
    05:00 +19°C° 0.5 mm 5 mps 738 mmHg 94%
    06:00 +19°C° 0.5 mm 5 mps 738 mmHg 95%
    07:00 +19°C° 0.7 mm 5 mps 738 mmHg 94%
    08:00 +19°C° 0.7 mm 5 mps 738 mmHg 94%
    09:00 +20°C° 0.7 mm 5 mps 739 mmHg 93%
    10:00 +21°C° 0.3 mm 5 mps 739 mmHg 90%
    11:00 +22°C° 0.3 mm 5 mps 739 mmHg 86%
    12:00 +23°C° 0.3 mm 6 mps 739 mmHg 83%
    13:00 +24°C° 1 mm 6 mps 740 mmHg 80%
    14:00 +26°C° 1 mm 6 mps 740 mmHg 78%
    15:00 +26°C° 1 mm 6 mps 740 mmHg 75%
    16:00 +26°C° 0.5 mm 5 mps 740 mmHg 77%
    17:00 +26°C° 0.5 mm 5 mps 740 mmHg 79%
    18:00 +26°C° 0.5 mm 4 mps 740 mmHg 80%
    19:00 +25°C° 0.1 mm 3 mps 741 mmHg 82%
    20:00 +24°C° 0.1 mm 3 mps 741 mmHg 85%
    21:00 +22°C° 0.1 mm 3 mps 741 mmHg 87%
    22:00 +21°C° 0.5 mm 3 mps 741 mmHg 89%
    23:00 +21°C° 0.5 mm 3 mps 741 mmHg 90%

    20 July, Friday

    Time Temperature Precipitation Wind Pressure Humidity
    00:00 +20°C° 0.5 mm 3 mps 741 mmHg 92%
    01:00 +20°C° 0.1 mm 3 mps 742 mmHg 92%
    02:00 +20°C° 0.1 mm 3 mps 742 mmHg 92%
    03:00 +20°C° 0.1 mm 3 mps 742 mmHg 92%
    04:00 +20°C° 0.5 mm 3 mps 742 mmHg 92%
    05:00 +20°C° 0.5 mm 3 mps 742 mmHg 92%
    06:00 +21°C° 0.5 mm 3 mps 742 mmHg 92%
    07:00 +21°C° 0.2 mm 3 mps 742 mmHg 89%
    08:00 +22°C° 0.2 mm 4 mps 742 mmHg 86%
    09:00 +23°C° 0.2 mm 5 mps 743 mmHg 83%
    10:00 +26°C° 0.2 mm 5 mps 742 mmHg 77%
    11:00 +28°C° 0.2 mm 5 mps 742 mmHg 71%
    12:00 +29°C° 0.2 mm 5 mps 742 mmHg 65%
    13:00 +30°C° 0.9 mm 4 mps 742 mmHg 64%
    14:00 +30°C° 0.9 mm 3 mps 742 mmHg 63%
    15:00 +30°C° 0.9 mm 3 mps 742 mmHg 63%
    16:00 +30°C° 1.1 mm 2 mps 742 mmHg 67%
    17:00 +29°C° 1.1 mm 2 mps 742 mmHg 72%
    18:00 +29°C° 1.1 mm 1 mps 742 mmHg 76%
    19:00 +27°C° 0.2 mm 1 mps 742 mmHg 78%
    20:00 +26°C° 0.2 mm 1 mps 742 mmHg 81%
    21:00 +24°C° 0.2 mm 1 mps 742 mmHg 83%
    22:00 +24°C° 0.7 mm 1 mps 742 mmHg 85%
    23:00 +23°C° 0.7 mm 2 mps 742 mmHg 87%

    21 July, Saturday

    Time Temperature Precipitation Wind Pressure Humidity
    00:00 +22°C° 0.7 mm 3 mps 743 mmHg 89%
    01:00 +21°C° 0.2 mm 3 mps 743 mmHg 90%
    02:00 +21°C° 0.2 mm 3 mps 743 mmHg 91%
    03:00 +20°C° 0.2 mm 4 mps 742 mmHg 92%
    04:00 +20°C° 0 mm 3 mps 742 mmHg 91%
    05:00 +20°C° 0 mm 3 mps 742 mmHg 91%
    06:00 +21°C° 0 mm 2 mps 742 mmHg 90%
    07:00 +23°C° 0 mm 2 mps 742 mmHg 85%
    08:00 +25°C° 0 mm 2 mps 742 mmHg 81%
    09:00 +26°C° 0 mm 2 mps 743 mmHg 76%
    10:00 +27°C° 0.7 mm 2 mps 743 mmHg 73%
    11:00 +28°C° 0.7 mm 3 mps 742 mmHg 69%
    12:00 +29°C° 0.7 mm 3 mps 742 mmHg 66%
    13:00 +30°C° 0.3 mm 3 mps 742 mmHg 63%
    14:00 +30°C° 0.3 mm 3 mps 742 mmHg 61%
    15:00 +30°C° 0.3 mm 3 mps 742 mmHg 59%
    16:00 +30°C° 0 mm 3 mps 742 mmHg 62%
    17:00 +30°C° 0 mm 3 mps 742 mmHg 66%
    18:00 +29°C° 0 mm 3 mps 742 mmHg 70%
    19:00 +28°C° 0.5 mm 3 mps 742 mmHg 76%
    20:00 +26°C° 0.5 mm 2 mps 742 mmHg 81%
    21:00 +24°C° 0.5 mm 2 mps 742 mmHg 87%
    22:00 +24°C° 1.1 mm 3 mps 742 mmHg 89%
    23:00 +22°C° 1.1 mm 3 mps 742 mmHg 90%
    Show more